Location: Helsinki
(60.1699°N, 24.9384°E)
Time: 17:06:29
(UTC+02:00)

A-11 Canister half - Pass Details

Date: 01 November 2020
Orbit: 1525 x 1684 km, 47.3° (Epoch: 29 November)

Event Time Altitude Azimuth Distance (km) Brightness Sun altitude
Rises 19:00:33 0° 273° (W) 4,728 13.2 -19.8°
Reaches altitude 10° 19:04:14 10° 261° (W) 3,724 12.1 -20.2°
Maximum altitude 19:11:28 26° 210° (SSW) 2,649 10.4 -21.1°
Drops below altitude 10° 19:18:38 10° 159° (SSE) 3,688 10.7 -22.0°
Enters shadow 19:19:47 - 154° (SSE) 3,982 10.8 -22.2°
